Zurück zum Katalog

CZ-6A DEB

AktivPO
NORAD 60889·DEBRIS·🇨🇳 China

Gestartet Aug 6, 2024 von Taiyuan Satellite Launch Center

Loading…

Nächste Überflüge (nächste 24 Stunden)

TLE

AktuellSource: Space-Track

Epoche: Sep 14, 2026, 18:07 UTC

1 60889U 24140KU  26257.75528998  .00000718  00000-0  30903-3 0  9991
2 60889  88.9967 264.3266 0034405 255.5202 104.2172 14.23350354106268

Verfolge CZ-6A DEB in Echtzeit mit AllMySat

Download on the App Store